Location: Central Coast
(33.3208°S, 151.2336°E)
Time: 16:55:18
(UTC+10:00)

Vanguard 2 - All Passes

Search period start: 24 April 2018 00:00
Search period end: 04 May 2018 00:00
Orbit: 553 x 2939 km, 32.9° (Epoch: 23 April)

Date Brightness Start Highest point End Pass type
(mag) Time Alt. Az. Time Alt. Az. Time Alt. Az.
24 Apr - 07:34:41 10° NNW 07:40:41 27° NE 07:49:31 10° E daylight
24 Apr - 09:40:28 10° WNW 09:49:22 70° NNE 10:04:14 10° E daylight
24 Apr - 11:48:56 10° W 12:00:52 89° N 12:18:36 10° E daylight
24 Apr - 13:58:49 10° W 14:13:47 75° NNW 14:31:47 10° ENE daylight
24 Apr - 16:10:28 10° W 16:26:06 44° NW 16:41:26 10° NNE daylight
24 Apr - 18:28:28 10° WNW 18:36:35 15° NW 18:44:07 10° NNW visible
25 Apr - 07:51:45 10° NNW 07:58:13 37° NE 08:08:27 10° E daylight
25 Apr - 09:58:23 10° WNW 10:07:31 79° NNE 10:22:46 10° E daylight
25 Apr - 12:07:06 10° W 12:19:18 88° N 12:37:08 10° E daylight
25 Apr - 14:17:05 10° W 14:32:04 67° NNW 14:49:47 10° NE daylight
25 Apr - 16:29:20 10° W 16:43:59 35° NW 16:58:21 10° NNE daylight
26 Apr - 08:09:08 10° NW 08:15:55 48° NNE 08:27:08 10° E daylight
26 Apr - 10:16:24 10° WNW 10:25:45 85° N 10:41:20 10° E daylight
26 Apr - 12:25:17 10° W 12:37:43 84° N 12:55:35 10° ENE daylight
26 Apr - 14:35:24 10° W 14:50:16 58° NNW 15:07:32 10° NE daylight
26 Apr - 16:48:39 10° W 17:01:49 27° NW 17:14:44 10° N daylight
27 Apr - 06:22:22 10° N 06:26:07 17° NE 06:30:57 10° E daylight
27 Apr - 08:26:47 10° NW 08:33:47 60° NNE 08:45:42 10° E daylight
27 Apr - 10:34:29 10° W 10:44:04 88° N 10:59:54 10° E daylight
27 Apr - 12:43:27 10° W 12:56:04 78° NNW 13:13:55 10° ENE daylight
27 Apr - 14:53:51 10° W 15:08:22 49° NNW 15:25:01 10° NE daylight
27 Apr - 17:08:46 10° W 17:19:38 20° NW 17:30:20 10° N daylight
28 Apr - 06:38:53 10° NNW 06:43:35 25° NE 06:50:20 10° E daylight
28 Apr - 08:44:36 10° WNW 08:51:48 72° NNE 09:04:13 10° E daylight
28 Apr - 10:52:36 10° W 11:02:24 88° N 11:18:28 10° E daylight
28 Apr - 13:01:39 10° W 13:14:23 71° NNW 13:32:06 10° ENE daylight
28 Apr - 15:12:28 10° W 15:26:26 40° NW 15:42:10 10° NNE daylight
28 Apr - 17:30:42 10° WNW 17:37:29 13° NW 17:44:12 10° NNW visible
29 Apr - 06:56:01 10° NNW 07:01:12 35° NE 07:09:11 10° E daylight
29 Apr - 09:02:33 10° WNW 09:09:55 80° NNE 09:22:43 10° E daylight
29 Apr - 11:10:43 10° W 11:20:45 86° N 11:37:00 10° ENE daylight
29 Apr - 13:19:53 10° W 13:32:38 62° NNW 13:50:01 10° NE daylight
29 Apr - 15:31:26 10° W 15:44:26 32° NW 15:58:52 10° NNE daylight
30 Apr - 07:13:29 10° NW 07:18:56 47° NNE 07:27:46 10° E daylight
30 Apr - 09:20:34 10° W 09:28:07 86° N 09:41:15 10° E daylight
30 Apr - 11:28:49 10° W 11:39:04 81° NNW 11:55:27 10° ENE daylight
30 Apr - 13:38:11 10° W 13:50:50 52° NNW 14:07:42 10° NE daylight
30 Apr - 15:50:55 10° W 16:02:26 24° NW 16:14:56 10° N daylight
01 May - 05:26:39 10° N 05:29:23 15° NE 05:32:40 10° ENE visible
01 May - 07:31:11 10° WNW 07:36:50 61° NNE 07:46:16 10° E daylight
01 May - 09:38:38 10° W 09:46:22 88° N 09:59:48 10° E daylight
01 May - 11:46:57 10° W 11:57:21 73° NNW 12:13:45 10° ENE daylight
01 May - 13:56:38 10° W 14:09:00 43° NNW 14:25:03 10° NNE daylight
01 May - 16:11:29 10° WNW 16:20:27 17° NW 16:29:58 10° N daylight
02 May - 05:43:11 10° NNW 05:46:57 23° NE 05:51:59 10° E visible
02 May - 07:49:03 10° WNW 07:54:50 73° NNE 08:04:42 10° E daylight
02 May - 09:56:41 10° W 10:04:38 87° N 10:18:20 10° E daylight
02 May - 12:05:06 10° W 12:15:36 64° NNW 12:31:51 10° NE daylight
02 May - 14:15:21 10° W 14:27:08 35° NNW 14:41:59 10° NNE daylight
02 May - 16:35:48 10° NW 16:38:32 11° NW 16:41:19 10° NNW daylight
03 May - 06:00:24 10° NNW 06:04:38 33° NNE 06:10:43 10° E visible
03 May - 08:07:00 10° WNW 08:12:57 82° N 08:23:09 10° E daylight
03 May - 10:14:46 10° W 10:22:53 83° N 10:36:49 10° ENE daylight
03 May - 12:23:19 10° W 12:33:49 55° NNW 12:49:42 10° NE daylight
03 May - 14:34:28 10° W 14:45:17 27° NW 14:58:24 10° NNE daylight
